RH
100 83 68 44 37 36 46 38 37 38 37 33 30 26 24 27 33 40 43 50 47 50 49 44 39 32 31 30 33 34 40 40 40 43 39 37 44 40 33 23 21 18 14 10 8 6 3
100 100 95 75 68 64 50 47 44 44 42 42 37 30 28 28 28 26 26 28 38 52 40 42 37 40 32 34 35 39 45 48 57 60 47 42 38 38 29 24 18 18 14 12 10 8 3
94 100 100 100 88 88 79 55 54 50 50 48 47 38 32 32 32 31 29 30 30 32 38 38 42 42 40 40 39 47 56 59 63 71 62 58 46 46 27 24 19 18 17 14 13 8 4
58 78 94 100 82 87 100 84 69 62 60 58 66 54 46 42 44 34 33 36 33 34 41 46 44 40 44 45 61 66 65 62 60 61 68 66 59 51 33 26 23 20 19 17 13 10 6
90 90 80 72 70 75 88 100 93 81 84 72 79 73 66 59 55 66 47 41 39 40 47 51 53 52 48 54 66 75 80 69 65 56 60 77 70 50 38 33 27 23 21 20 17 12 9
90 93 91 79 75 89 88 79 92 100 100 100 99 84 73 71 64 75 60 58 51 48 50 53 62 58 55 49 58 68 79 77 60 64 66 55 62 48 45 38 29 24 22 20 17 14 11
100 99 93 100 100 100 100 95 93 99 100 100 100 100 94 84 75 81 75 73 71 59 68 68 58 63 61 50 63 70 69 65 74 52 49 44 47 52 47 49 33 28 24 20 19 18 15
84 96 86 87 81 85 75 82 97 100 99 89 91 89 95 95 92 93 93 79 84 76 79 75 62 68 71 57 55 56 53 53 60 54 45 46 46 64 61 55 40 32 26 23 22 23 19
88 83 82 81 96 94 80 78 80 100 98 96 89 100 100 100 100 94 100 98 98 94 95 86 70 60 65 68 60 55 54 45 50 54 51 44 50 62 68 70 46 34 32 26 24 26 22
92 97 91 82 79 77 86 75 76 79 97 96 95 100 100 86 82 80 98 100 100 95 97 86 78 72 72 62 60 64 57 54 48 47 53 51 58 60 68 82 62 44 39 34 27 25 27
94 97 95 86 87 90 95 99 96 92 82 95 99 87 75 96 96 92 100 97 94 99 94 85 89 81 77 66 68 69 70 61 53 52 58 56 62 61 61 80 79 61 47 37 30 26 30
100 100 100 94 84 79 75 84 92 95 88 94 98 96 93 92 85 91 97 92 85 92 96 94 86 78 70 66 70 67 65 57 57 58 60 63 63 61 65 74 90 88 64 52 32 35 27
100 100 100 100 96 96 100 99 99 100 100 94 99 94 92 88 79 80 88 80 80 90 94 92 90 78 81 78 72 69 61 57 66 65 72 81 77 74 73 87 93 100 94 78 53 38 35
75 82 100 100 100 100 100 100 100 100 100 99 94 89 89 89 93 93 94 97 91 100 96 88 94 94 81 81 84 77 71 70 67 64 67 96 84 85 77 80 88 100 100 83 54 45 30
59 81 80 69 73 89 99 100 100 100 100 100 100 100 100 100 100 100 100 100 100 99 93 82 85 87 85 79 83 95 95 91 82 81 90 87 90 78 85 80 80 89 97 94 78 54 42
46 57 57 68 89 88 79 72 69 72 83 94 100 100 100 100 100 100 100 100 100 100 100 100 98 94 100 97 91 94 95 92 95 96 89 92 97 85 79 84 85 90 87 87 79 77 60
59 58 50 46 48 61 71 84 92 98 95 88 79 72 82 96 100 100 100 100 100 100 99 86 93 92 96 92 95 95 94 94 88 84 86 84 82 94 73 83 71 84 79 76 80 88 90
71 77 84 69 67 51 54 60 64 68 79 96 99 99 100 100 95 82 99 93 92 100 100 99 99 100 100 98 90 100 99 92 93 91 82 62 78 76 68 75 77 67 49 57 60 86 89
98 87 88 82 84 82 57 56 64 61 58 58 62 76 88 100 95 100 100 100 100 99 99 99 100 99 99 96 88 100 96 93 86 68 63 61 69 68 90 70 70 57 47 46 49 63 74
97 90 94 89 77 71 64 61 68 76 63 57 52 45 58 62 78 94 96 100 100 99 97 93 93 93 85 80 79 75 77 70 69 66 64 66 69 68 80 70 74 69 53 46 43 43 50
100 100 100 76 71 68 84 86 89 81 60 50 51 52 50 52 60 65 96 99 100 100 100 100 100 98 85 79 95 93 86 70 71 74 76 68 70 77 99 88 78 81 69 45 42 38 50
82 100 100 93 90 79 72 67 58 58 54 50 40 46 51 62 64 62 64 88 100 100 100 100 100 100 100 99 94 82 77 78 75 75 76 73 71 76 86 86 78 75 82 60 52 50 47
100 96 95 95 75 67 61 64 63 51 43 40 33 41 56 58 60 62 66 72 91 100 100 100 100 100 100 100 88 82 84 81 80 81 82 78 69 66 65 72 68 78 87 70 62 60 57
100 94 99 78 62 66 68 55 53 43 35 29 30 42 54 64 66 71 78 77 85 99 97 100 100 100 100 100 100 100 86 92 90 91 76 69 63 68 69 78 57 95 91 73 59 68 60
80 95 82 73 72 60 49 42 41 35 33 27 31 34 45 63 73 78 77 84 98 100 97 95 100 100 100 100 100 100 100 97 81 73 75 79 69 69 61 65 63 66 85 86 89 82 66
88 75 70 56 45 44 40 37 31 30 29 29 31 37 41 56 76 80 99 100 94 100 100 99 100 100 86 74 70 66 64 68 68 71 73 66 58 66 59 64 57 72 84 83 79 79 79
63 56 49 43 39 35 29 29 26 28 31 38 39 42 44 43 69 82 90 97 97 94 97 100 93 82 87 95 80 78 78 75 63 79 89 91 83 73 69 60 63 82 87 92 74 80 72
47 44 39 36 30 27 32 32 33 33 32 34 42 44 42 34 54 74 96 92 92 97 84 88 98 100 100 91 82 74 66 70 51 67 82 94 82 82 98 95 60 95 89 84 84 87 91
35 33 29 28 31 34 34 35 34 36 42 37 42 40 36 34 39 44 53 66 64 74 100 100 92 100 100 96 90 69 38 36 52 46 90 70 100 89 71 78 96 88 96 99 98 99 99
Wind_Speed
25 20 20 21 20 16 21 18 19 19 21 21 20 18 18 18 17 21 22 23 24 27 27 30 29 28 28 31 32 33 38 38 40 46 46 46 51 57 59 55 54 56 60 64 61 59 45
28 25 21 21 25 26 24 23 23 24 23 22 23 22 20 19 26 25 27 24 26 29 28 32 34 36 35 31 35 40 42 42 43 49 49 50 53 57 58 57 53 56 54 60 63 61 49
26 29 28 25 28 29 29 28 28 29 28 26 29 26 24 26 30 30 32 32 31 31 31 31 34 37 36 34 33 35 38 43 44 46 49 53 55 57 57 56 53 52 60 59 66 63 51
31 31 31 32 32 31 33 33 34 32 33 34 33 33 30 33 35 36 38 40 41 39 38 38 38 38 36 37 39 39 42 45 46 47 48 50 55 56 58 59 57 54 56 59 60 62 58
39 37 38 39 38 39 35 37 38 37 36 38 37 37 36 37 40 42 42 42 44 43 44 44 41 43 40 39 39 40 44 47 47 47 49 50 54 52 53 58 58 56 54 56 60 61 59
39 38 39 40 39 40 40 40 40 42 42 39 42 42 40 45 47 46 47 47 45 47 48 50 48 47 43 40 43 44 45 48 49 48 46 47 51 51 53 54 55 53 50 54 54 60 61
44 45 43 40 41 42 43 40 42 44 47 46 47 47 46 51 51 50 50 48 49 51 52 53 53 51 47 47 46 47 47 47 49 49 48 47 49 54 55 54 54 56 54 50 54 58 64
51 50 50 50 52 49 49 50 50 50 49 51 54 54 52 55 57 57 54 53 53 53 54 56 56 55 53 50 50 48 48 48 49 50 49 49 49 54 56 53 53 52 53 52 53 56 62
55 56 56 54 53 54 54 53 54 52 54 56 56 56 56 57 57 57 56 56 55 56 56 58 58 58 58 56 51 50 49 48 47 49 52 49 51 52 54 53 58 53 53 53 52 52 58
63 61 59 59 61 61 58 59 60 57 56 57 58 58 60 61 60 59 58 60 60 60 59 59 61 61 59 56 55 52 50 51 49 50 50 51 51 53 51 52 55 55 54 55 51 49 51
65 65 64 64 64 64 65 64 62 61 63 61 62 63 64 65 63 61 62 63 64 65 62 62 61 60 60 59 56 54 54 56 54 53 51 52 53 54 52 52 55 56 55 53 52 49 49
62 63 65 65 65 64 63 64 65 65 65 66 67 68 67 66 67 65 64 63 62 62 62 62 62 61 61 60 58 58 58 58 56 56 54 54 53 50 52 51 51 54 56 54 49 50 47
59 60 61 63 64 62 64 64 65 65 65 66 68 68 65 67 68 63 63 64 64 64 64 63 62 63 62 62 62 60 59 56 56 56 57 58 55 51 50 49 47 49 50 50 51 44 43
53 58 62 65 65 65 65 67 67 66 68 70 69 70 70 69 68 67 65 64 65 67 67 65 63 64 65 63 63 62 60 59 58 59 58 57 55 53 49 45 45 43 44 46 45 42 37
49 53 54 59 61 64 69 69 71 72 71 70 69 68 68 69 68 67 68 69 69 71 70 67 66 66 66 64 62 61 60 62 62 62 60 57 56 52 50 47 45 42 42 42 43 44 37
48 53 56 54 54 59 62 64 66 65 66 71 72 74 72 71 71 70 68 68 70 72 72 70 67 66 66 68 66 65 64 65 62 61 58 55 54 54 51 48 45 43 44 42 39 37 41
58 54 56 56 59 59 61 59 58 58 62 64 66 67 72 78 76 77 73 73 75 73 73 72 70 67 67 66 67 66 64 60 59 58 60 56 54 55 51 46 44 42 43 41 40 34 33
66 64 68 68 66 62 64 64 62 63 64 63 66 69 67 67 68 66 65 67 67 67 70 71 67 67 68 69 66 65 63 65 62 60 58 54 45 46 46 44 46 42 37 36 37 36 30
70 71 70 71 70 68 70 69 66 68 71 73 71 69 70 74 71 65 65 66 65 61 65 68 69 68 66 66 64 57 58 59 59 56 53 46 42 45 46 45 43 38 34 33 33 34 36
80 79 76 79 75 74 72 72 75 75 73 75 79 77 76 74 74 76 73 69 67 67 66 67 65 64 65 65 64 58 59 60 58 53 52 53 51 50 45 46 42 44 43 33 30 34 38
89 86 86 85 78 74 77 79 82 82 81 76 72 77 76 78 76 75 77 75 73 73 72 69 69 70 69 66 65 65 65 63 58 55 54 53 48 47 48 52 46 46 50 39 38 36 28
87 80 85 85 86 81 83 85 86 86 85 79 76 76 77 77 78 78 77 77 81 80 74 76 75 75 75 73 73 69 69 65 62 59 58 57 54 50 50 57 54 47 54 50 45 43 39
88 90 89 90 86 85 86 85 87 87 83 79 76 76 74 74 79 79 80 78 82 83 83 78 79 78 79 80 79 76 72 72 68 68 67 64 62 59 55 58 56 47 58 51 49 47 42
92 95 95 93 87 87 89 89 85 84 83 80 74 74 74 72 75 78 77 79 81 83 82 82 86 86 86 84 80 79 81 80 79 76 74 70 65 62 58 57 51 53 55 58 53 48 46
92 97 98 94 94 92 91 88 84 80 79 78 75 74 72 71 73 76 76 76 79 83 82 82 86 85 88 86 87 86 87 87 83 81 75 70 68 63 59 56 50 50 57 60 60 54 53
94 95 96 95 93 94 90 85 79 77 76 76 75 76 74 72 73 74 74 77 77 78 82 85 88 88 92 92 93 89 89 87 81 76 75 73 69 65 60 59 51 52 59 64 63 53 64
97 97 95 94 92 88 84 80 77 75 76 75 77 75 75 73 73 76 77 78 80 82 82 82 85 87 89 87 88 87 85 83 76 73 75 77 76 74 70 66 51 56 66 67 60 61 60
93 92 90 88 85 81 79 78 77 78 77 76 77 78 77 74 73 75 79 81 83 86 86 84 85 89 91 94 94 93 88 86 78 77 79 82 81 74 77 76 56 66 70 71 71 67 69
83 82 83 82 78 78 78 77 76 77 77 79 77 81 80 78 75 78 82 86 89 89 89 90 88 90 95 97 98 98 88 82 85 76 82 79 82 83 81 76 76 78 83 85 84 82 82
Wind_Direction
277 273 270 275 281 280 310 297 296 298 316 318 327 325 328 326 321 315 321 315 314 316 318 317 315 314 311 308 305 306 315 316 316 321 320 320 318 321 326 327 328 331 333 331 337 339 333
279 270 273 272 276 288 280 290 287 293 291 302 307 306 311 319 323 321 326 326 320 318 320 318 319 317 315 307 300 304 310 316 314 316 326 328 326 329 328 330 330 333 337 340 343 346 340
272 275 274 276 281 284 281 279 285 283 279 289 304 301 297 303 315 313 317 319 317 319 317 319 322 318 313 309 307 310 311 315 316 318 323 322 328 332 332 332 334 341 343 348 348 349 347
267 270 274 275 280 286 282 280 278 280 275 282 289 296 299 303 308 314 314 313 315 316 316 316 313 317 316 308 309 310 309 314 315 317 320 323 328 332 336 337 339 346 349 351 349 352 353
275 273 274 277 277 280 279 280 277 279 277 274 281 290 291 296 304 306 310 309 312 312 313 312 316 318 312 310 311 308 308 315 317 321 323 322 325 331 339 342 342 346 349 353 354 355 358
273 273 277 278 278 278 278 275 274 278 278 276 277 282 285 295 299 304 304 304 303 306 307 309 312 315 315 309 309 309 310 315 319 323 325 327 329 333 336 342 342 341 350 352 358 357 1
269 272 275 272 277 278 279 277 278 278 275 277 278 281 283 294 295 296 297 297 297 298 301 305 307 311 312 310 309 311 313 316 318 320 323 326 330 333 338 339 342 346 350 356 359 4 2
272 273 276 279 282 280 279 278 279 280 277 278 281 281 284 289 292 292 292 294 294 297 299 302 303 306 308 309 309 308 313 318 320 319 323 327 331 331 334 336 339 344 348 356 3 7 5
272 273 275 275 271 274 278 277 278 275 275 277 278 276 281 286 288 289 288 290 292 294 295 298 300 303 306 308 306 309 311 312 317 319 323 326 332 332 331 332 336 342 349 354 360 7 10
273 274 276 275 276 278 274 277 278 276 275 276 278 276 278 283 284 286 286 285 288 291 294 296 297 301 303 304 305 309 308 311 316 320 320 326 324 327 328 328 332 338 344 348 355 4 9
273 275 273 275 277 278 278 277 277 278 275 274 275 275 280 283 283 282 283 283 285 288 291 295 295 299 301 304 304 306 306 309 313 317 317 320 323 322 324 325 327 332 336 343 349 358 5
272 272 273 275 276 277 277 276 276 275 276 276 275 276 280 281 283 283 283 285 287 289 291 292 294 296 298 300 300 302 305 306 311 313 315 317 319 320 321 323 325 327 331 335 346 350 356
272 273 273 274 276 273 272 274 274 273 273 275 275 278 279 280 282 283 283 284 286 287 289 291 293 294 295 296 299 299 302 304 306 310 311 312 314 314 317 320 322 322 326 332 337 345 347
284 274 271 270 269 271 271 272 271 270 272 275 276 277 277 276 278 279 279 281 284 285 287 288 290 291 292 295 295 298 299 301 303 306 306 306 307 310 312 313 315 316 317 323 329 334 343
283 284 283 280 275 275 270 269 271 272 273 272 272 274 275 276 276 276 278 280 280 281 283 286 288 289 290 291 291 292 293 296 298 301 301 303 303 308 309 310 310 310 312 316 322 328 335
293 287 279 281 280 282 278 277 277 274 274 273 272 271 269 270 272 274 276 278 278 279 282 284 285 286 286 287 288 289 292 293 295 297 299 301 302 305 307 307 308 307 309 310 312 316 321
303 302 295 294 283 280 279 278 277 276 276 276 275 277 273 268 267 270 272 272 273 275 277 280 280 282 283 284 288 289 290 290 292 296 297 298 301 299 303 302 307 307 306 303 304 309 312
300 300 302 301 295 290 282 277 277 277 276 277 275 274 273 275 278 276 275 276 277 278 279 280 280 281 282 284 284 285 287 290 289 293 294 300 300 302 304 304 307 307 309 303 301 300 300
297 298 297 298 292 288 286 282 281 280 280 279 273 273 271 271 270 271 270 271 270 272 274 275 276 278 280 281 282 282 287 288 287 291 295 299 300 303 301 305 306 304 307 312 306 301 296
294 295 296 296 290 289 285 283 284 285 284 281 278 273 271 270 269 267 267 270 270 271 273 274 275 277 277 278 280 280 280 282 285 290 291 295 296 299 295 299 298 299 304 301 297 302 294
294 291 292 295 292 289 285 285 284 285 285 283 281 275 268 268 268 268 265 265 266 268 269 270 274 277 278 278 279 279 279 282 283 285 287 287 288 288 291 294 293 294 298 297 302 308 293
293 288 289 291 291 288 284 283 283 283 284 283 283 277 271 266 267 267 267 264 262 263 263 267 269 271 274 276 276 274 277 281 285 287 287 287 285 280 282 285 286 289 289 288 295 300 298
285 286 286 289 288 287 286 285 286 285 283 282 280 277 271 269 266 267 267 265 263 263 262 262 265 267 271 271 273 275 276 280 282 284 283 283 284 282 284 281 280 285 281 282 286 290 290
283 284 286 288 288 287 287 286 286 284 283 280 278 274 272 268 267 267 267 267 266 263 262 265 266 266 266 268 269 271 274 276 278 279 280 280 282 282 282 281 284 275 276 277 282 282 284
283 283 286 287 287 287 286 285 283 281 280 278 276 273 269 268 267 266 266 264 265 265 264 261 263 264 265 264 266 265 267 271 275 278 278 276 279 283 283 283 282 281 273 276 278 280 281
284 284 285 285 285 285 284 283 281 278 276 275 273 272 271 268 266 264 265 265 262 263 265 264 263 264 266 268 267 266 267 268 271 273 275 277 278 280 284 281 280 276 275 279 277 278 276
282 283 283 283 284 284 283 282 279 276 275 274 272 269 270 269 268 269 266 265 263 263 262 262 263 265 265 264 265 266 267 268 272 274 276 278 280 281 280 278 280 280 274 270 274 270 276
283 283 284 284 284 283 281 278 277 276 274 273 272 270 268 266 265 264 265 266 265 264 264 264 264 264 264 267 267 268 270 271 273 273 273 273 276 279 278 278 283 273 274 275 274 272 271
284 283 282 283 281 280 278 277 275 273 272 272 270 270 269 269 266 264 265 265 264 262 262 263 264 263 263 263 265 268 273 275 275 277 273 276 274 275 279 281 280 280 278 277 277 277 277